Showing default

FLOCK 4BE 17, 60492

Orbit data source: Space-Track

FLOCK 4BE 17, 60492 is a payload satellite owned by Planet (US) in SSO that was launched on Fri, 16 Aug 2024 UTC via an FALCON 9 launch vehicle from the Air Force Western Test Range (AFWTR). Payloads include a variety of satellites, spacecraft, and rockets equipped with specific instruments for various scientific and technological missions. These include communications satellites like Starlink; space stations such as the ISS; scientific satellites like the Hubble; Earth observation satellites from companies like Planet Labs, Umbra, and HawkEye 360; GPS; miniature CubeSats for education and research; and military/defense satellites.

Loading next visibility...
FLOCK 4BE 17 details
Identifier
60492, 2024-149AA
Orbit
SSO
Last TLE update7 hours ago
Origin
Flag of USPlanet (US)
ManufacturerPlanet
MissionOperational spacecraft
Bus & MotorCUBESAT 3U, Unknown motor
Mass5.7 kg wet, 5.7 kg dry
Launch date (UTC)
2024-08-16 (4 months ago)
Launch vehicle
FALCON 9
Launch site
Air Force Western Test Range (AFWTR)
Object type
Payload
Rocket body
Debris
Shape & HBRUnknown
Radar Cross SectionMedium (>0.1 m² and <1 m²)

Expand to show TLE details & history

TLE from 7 hours ago
0 FLOCK 4BE 17
1 60492U 24149AA  24337.17877853  .00018284  00000-0  81250-3 0  9998
2 60492  97.4348  51.1886 0005099 101.0634 259.1175 15.21566494 16308
Epoch: 2024-12-02T04:17Z
Definitive object data (Epoch: 2024-12-02T04:17:26.465Z)
Latitude-0.00005°
Longitude-84.67802°
Altitude504.871 km
Speed7.611 km/s
True Right ascension03h 24m 45s
True Declination0° 00' 00"
Sunlit
Object was in full shadow at TLE epoch
Visualization TLE readout
Latitude43.63845°
Longitude-91.51886°
Altitude505.704 km
Speed7.617 km/s
Apparent Right ascension23h 48m 13s
Apparent Declination5° 39' 32"
Sunlit
Object is in full shadow
Visualization observer readout
Local Sidereal Time08:34:24
Azimuth303.829° NW
Elevation-26.291°
Doppler factor1
Orbital elements
Apogee altitude501.586 km
Perigee altitude494.574 km
Semi-major axis6,876.217 km
Eccentricity0.0005099
Inclination97.4348°
RAAN51.1886°
Arg. of periapsis101.0634°
True anomaly259.06013°
Mean anomaly259.1175°
Eccentric anomaly259.08881°
Mean motion3.80644 °/min
BSTAR0.0008125
Orbital period94.58 mins
Loading maneuver chart data...
Loading historical data...
Loading historical data...
Loading historical data...
Loading historical data...
Loading historical data...
Loading historical data...
Loading historical data...

FLOCK 4BE 17 Visibility forecast

Observer location: undefined°, undefined

Span
Click to sort rows by Start time (UTC) header in descending order
Start Az.
Max El. time (UTC)
Max El. Az.
Max El.
End time (UTC)
End Az.
6 mins2024-12-02 17:28:46.818Z32.978° NE2024-12-02 17:31:46.818Z89.514° E27.76°2024-12-02 17:34:46.818Z158.207° S
5 mins2024-12-03 05:40:46.818Z205.03° SW2024-12-03 05:42:46.818Z255.875° W30.084°2024-12-03 05:45:46.818Z326.131° NNW
|